Weather History for Tillamook, OR

Change the Weather History Date:

Monday, August 11, 2014

  Actual Average (KMMV) Record (KMMV)
Temperature  
Mean Temperature 66 °F 67 °F  
Max Temperature 80 °F 83 °F 103 °F (1992)
Min Temperature 53 °F 51 °F 38 °F (1959)
Degree Days  
Heating Degree Days 0 1  
Month to date heating degree days 11  
Since 1 July heating degree days 55  
Cooling Degree Days 2 3  
Month to date cooling degree days 33  
Year to date cooling degree days 133  
Growing Degree Days 16 (Base 50)    
Moisture  
Dew Point 56 °F    
Average Humidity 80    
Maximum Humidity 100    
Minimum Humidity 54    
Precipitation  
Precipitation 0.00 in 0.02 in 0.39 in (2009)
Month to date precipitation 0.13  
Year to date precipitation 21.88  
Sea Level Pressure  
Sea Level Pressure 29.93 in    
Wind  
Wind Speed 1 mph (NW)    
Max Wind Speed 12 mph    
Max Gust Speed -    
Visibility 8 miles    
Events      
T = Trace of Precipitation, MM = Missing Value Source: NWS Daily Summary

Daily Weather History Graph

Daily Weather History Graph

Search for Another Location

Airport:

Trip Planner

Search our weather history database for the weather conditions in past years. The results will help you decide how hot, cold, wet, or windy it might be!

Date:

Astronomy

Aug. 11, 2014 Rise Set
Actual Time 7:11 AM MDT 9:28 PM MDT
Civil Twilight 6:38 AM MDT 10:01 PM MDT
Nautical Twilight 5:57 AM MDT 10:41 PM MDT
Astronomical Twilight 5:12 AM MDT 11:27 PM MDT
Moon 9:52 PM MDT (8/11) 8:29 AM MDT (8/11)
Length of Visible Light 15h 22m
Length of Day
14h 17m
Full, 98% of the Moon is Illuminated
Aug 11
Full
Aug 17
Last Quarter
Aug 25
New
Sep 2
First Quarter
Sep 8
Full

Hourly Weather History & Observations

Time (MDT) Temp. Heat Index Dew Point Humidity Pressure Visibility Wind Dir Wind Speed Gust Speed Precip Events Conditions
12:15 AM 55.4 °F - 51.8 °F 88% 30.00 in 7.0 mi Calm Calm - N/A   Clear
12:35 AM 55.4 °F - 53.6 °F 94% 30.00 in 7.0 mi Calm Calm - N/A   Clear
12:55 AM 55.4 °F - 53.6 °F 94% 29.99 in 7.0 mi Calm Calm - N/A   Clear
1:15 AM 55.4 °F - 53.6 °F 94% 29.99 in 7.0 mi Calm Calm - N/A   Clear
1:35 AM 55.4 °F - 51.8 °F 88% 30.00 in 7.0 mi Calm Calm - N/A   Clear
1:55 AM 55.4 °F - 53.6 °F 94% 29.99 in 7.0 mi Calm Calm - N/A   Clear
2:15 AM 55.4 °F - 53.6 °F 94% 29.99 in 5.0 mi NNE 3.5 mph - N/A   Clear
2:35 AM 55.4 °F - 53.6 °F 94% 29.98 in 5.0 mi Calm Calm - N/A   Clear
2:55 AM 55.4 °F - 53.6 °F 94% 29.97 in 7.0 mi Calm Calm - N/A   Clear
3:15 AM 53.6 °F - 53.6 °F 100% 29.96 in 7.0 mi Calm Calm - N/A   Clear
3:35 AM 53.6 °F - 53.6 °F 100% 29.95 in 5.0 mi Calm Calm - N/A   Clear
3:55 AM 53.6 °F - 53.6 °F 100% 29.95 in 7.0 mi Calm Calm - N/A   Clear
4:15 AM 53.6 °F - 53.6 °F 100% 29.95 in 5.0 mi Calm Calm - N/A   Clear
4:35 AM 55.4 °F - 53.6 °F 94% 29.94 in 7.0 mi Calm Calm - N/A   Clear
4:55 AM 55.4 °F - 53.6 °F 94% 29.94 in 7.0 mi Calm Calm - N/A   Clear
5:15 AM 55.4 °F - 53.6 °F 94% 29.93 in 7.0 mi Calm Calm - N/A   Clear
5:35 AM 55.4 °F - 53.6 °F 94% 29.92 in 5.0 mi Calm Calm - N/A   Clear
5:55 AM 55.4 °F - 53.6 °F 94% 29.91 in 5.0 mi Calm Calm - N/A   Clear
6:15 AM 53.6 °F - 53.6 °F 100% 29.91 in 5.0 mi Calm Calm - N/A   Clear
6:35 AM 55.4 °F - 53.6 °F 94% 29.92 in 5.0 mi Calm Calm - N/A   Clear
6:55 AM 55.4 °F - 53.6 °F 94% 29.92 in 5.0 mi Calm Calm - N/A   Clear
7:15 AM 55.4 °F - 53.6 °F 94% 29.92 in 5.0 mi Calm Calm - N/A   Clear
7:35 AM 53.6 °F - 53.6 °F 100% 29.91 in 5.0 mi Calm Calm - N/A   Clear
7:55 AM 55.4 °F - 53.6 °F 94% 29.91 in 5.0 mi Calm Calm - N/A   Clear
8:15 AM 55.4 °F - 53.6 °F 94% 29.92 in 5.0 mi Calm Calm - N/A   Clear
8:35 AM 57.2 °F - 53.6 °F 88% 29.92 in 7.0 mi Calm Calm - N/A   Clear
8:55 AM 59.0 °F - 53.6 °F 82% 29.92 in 5.0 mi Calm Calm - N/A   Clear
9:15 AM 59.0 °F - 55.4 °F 88% 29.92 in 7.0 mi Calm Calm - N/A   Clear
9:35 AM 60.8 °F - 55.4 °F 82% 29.91 in 7.0 mi Calm Calm - N/A   Clear
9:55 AM 62.6 °F - 55.4 °F 77% 29.92 in 7.0 mi Calm Calm - N/A   Clear
10:15 AM 66.2 °F - 59.0 °F 78% 29.93 in 7.0 mi Calm Calm - N/A   Clear
10:35 AM 68.0 °F - 59.0 °F 73% 29.92 in 10.0 mi Calm Calm - N/A   Clear
10:55 AM 69.8 °F - 59.0 °F 68% 29.92 in 10.0 mi Calm Calm - N/A   Clear
11:15 AM 71.6 °F - 60.8 °F 69% 29.91 in 10.0 mi Calm Calm - N/A   Clear
11:35 AM 73.4 °F - 60.8 °F 65% 29.91 in 10.0 mi Calm Calm - N/A   Clear
11:55 AM 75.2 °F - 60.8 °F 61% 29.91 in 7.0 mi Calm Calm - N/A   Clear
12:15 PM 78.8 °F - 60.8 °F 54% 29.91 in 10.0 mi Calm Calm - N/A   Clear
12:35 PM 80.6 °F 81.8 °F 62.6 °F 54% 29.90 in 10.0 mi NW 3.5 mph - N/A   Clear
12:55 PM 77.0 °F - 60.8 °F 57% 29.91 in 5.0 mi WNW 10.4 mph - N/A   Haze
1:15 PM 73.4 °F - 60.8 °F 65% 29.91 in 7.0 mi WNW 11.5 mph - N/A   Clear
1:35 PM 73.4 °F - 59.0 °F 61% 29.92 in 10.0 mi WNW 9.2 mph - N/A   Clear
1:55 PM 71.6 °F - 59.0 °F 64% 29.92 in 10.0 mi WNW 8.1 mph - N/A   Clear
2:15 PM 71.6 °F - 59.0 °F 64% 29.92 in 10.0 mi NW 6.9 mph - N/A   Clear
2:35 PM 71.6 °F - 59.0 °F 64% 29.92 in 10.0 mi NW 5.8 mph - N/A   Clear
2:55 PM 73.4 °F - 59.0 °F 61% 29.92 in 10.0 mi Calm Calm - N/A   Clear
3:15 PM 73.4 °F - 59.0 °F 61% 29.92 in 10.0 mi WNW 8.1 mph - N/A   Clear
3:35 PM 71.6 °F - 59.0 °F 64% 29.92 in 7.0 mi WNW 8.1 mph - N/A   Clear
3:55 PM 71.6 °F - 59.0 °F 64% 29.92 in 10.0 mi NW 6.9 mph - N/A   Clear
4:35 PM 71.6 °F - 59.0 °F 64% 29.92 in 10.0 mi WNW 8.1 mph - N/A   Clear
4:55 PM 69.8 °F - 55.4 °F 60% 29.92 in 10.0 mi West 6.9 mph - N/A   Clear
5:15 PM 69.8 °F - 57.2 °F 64% 29.92 in 10.0 mi NW 6.9 mph - N/A   Clear
5:35 PM 68.0 °F - 57.2 °F 68% 29.91 in 10.0 mi Calm Calm - N/A   Clear
5:55 PM 66.2 °F - 57.2 °F 73% 29.90 in 10.0 mi NW 4.6 mph - N/A   Clear
6:15 PM 68.0 °F - 57.2 °F 68% 29.90 in 10.0 mi West 4.6 mph - N/A   Clear
6:35 PM 68.0 °F - 57.2 °F 68% 29.90 in 10.0 mi Calm Calm - N/A   Clear
6:55 PM 68.0 °F - 59.0 °F 73% 29.90 in 10.0 mi WNW 5.8 mph - N/A   Clear
7:15 PM 66.2 °F - 57.2 °F 73% 29.89 in 10.0 mi WNW 4.6 mph - N/A   Clear
7:35 PM 64.4 °F - 57.2 °F 77% 29.89 in 10.0 mi NW 5.8 mph - N/A   Clear
7:55 PM 64.4 °F - 57.2 °F 77% 29.90 in 10.0 mi Calm Calm - N/A   Clear
8:15 PM 64.4 °F - 55.4 °F 73% 29.90 in 10.0 mi WNW 6.9 mph - N/A   Clear